User: anonymous   Login
Location: Unspecified
(0.0000°N, 0.0000°E)
Time: 23:59:40
(UTC+00:00)
Language:

COSMOS 2452 - Orbit

View from above orbital plane
View from above orbital plane
View from above satellite
View from above satellite

Ground track
Ground track

The orbit data is extracted from the following two-line orbital elements,

1 35499U 09036B   17172.74845158 +.00000010 +00000-0 +00000-0 0  9999
2 35499 082.4897 323.7120 0016619 099.4747 260.8215 12.42903756361116
Epoch (UTC): 21 June 2017 17:57:46
Eccentricity: 0.0016619
inclination: 82.4897°
perigee height: 1481 km
apogee height: 1507 km
right ascension of ascending node: 323.7120°
argument of perigee: 99.4747°
revolutions per day: 12.42903756
mean anomaly at epoch: 260.8215°
orbit number at epoch: 36111

The dashed part of the orbit path shows where the satellite is in the earth's shadow,  

DLR